sat.trackr.live / text

‹ back to catalog

STARLINK-3632

NORAD 51784 · 2022-017S

PAYLOAD ACTIVE UNKNOWN

§ Identity

Operator
Country
US
Launch date
2022-02-25
Launch site
AFWTR
Launch vehicle
Mass (kg)
RCS (m²)

Purposes: comms

External: N2YO · Heavens-Above · Gunter

§ Orbital elements

Epoch: 2026-05-25T02:31:32.444832Z

Period
95.44 min
Inclination
53.2139°
Eccentricity
0.0002069
Mean motion
15.08754530 rev/d
Perigee alt
538.6 km
Apogee alt
541.4 km
Semi-major
6,918.1 km
B*
-2.0003e-3
RAAN
6.0778°
Arg perigee
42.1747°
Mean anomaly
317.9404°
Rev number
23,381

§ Raw data

STARLINK-36321 51784U 22017S   26145.10523663 -.00031909  00000+0 -20003-2 0  99912 51784  53.2139   6.0778 0002069  42.1747 317.9404 15.08754530233813

JSON: /api/v1/satellites/51784 · /tle

For live sub-satellite position, see the globe view (requires WebGL).

§ Visibility from observer

Set your observer location to see the next 7 days of passes ≥ 10°. The values pass through the URL so the page stays shareable.

No JS? Fill the form by hand. The geolocation button needs JavaScript.